[TLELIST] Archives

 

Current TLEs

March 19th 2007 PDT

HST 1 20580U 90037B 07078.19848125 .00000393 00000-0 17677-4 0 8327 2 20580 028.4668 056.9065 0003758 218.5575 141.4756 15.00207375726438 ISS (ZARYA) 1 25544U 98067A 07078.47060269 .00015876 00000-0 95816-4 0 8524 2 25544 051.6343 207.5271 0014269 326.5592 160.6475 15.77729988476607 CXO 1 25867U 99040B 07077.33333333 .00000400 00000-0 00000+0 0 472 2 25867 061.3444 091.2673 6111067 285.6708 301.2104 00.37810185 1913 ____________________________________________________________________ These 2-Line ...Continue Reading

Current TLEs

March 18th 2007 PDT

HST 1 20580U 90037B 07076.80142273 .00000401 00000-0 18271-4 0 8314 2 20580 028.4666 066.0158 0003739 203.7553 156.2862 15.00206728726222 ISS (ZARYA) 1 25544U 98067A 07077.44890258 .00015858 00000-0 95845-4 0 8453 2 25544 051.6339 212.8037 0014412 322.3799 117.8794 15.77696323476440 CXO 1 25867U 99040B 07077.33333333 .00000400 00000-0 00000+0 0 472 2 25867 061.3444 091.2673 6111067 285.6708 301.2104 00.37810185 1913 ____________________________________________________________________ These 2-Line ...Continue Reading

Current TLEs

March 17th 2007 PDT

HST 1 20580U 90037B 07075.53741650 .00000422 00000-0 19939-4 0 8301 2 20580 028.4665 074.2568 0003820 190.8800 169.1700 15.00206295726031 ISS (ZARYA) 1 25544U 98067A 07076.49251561 .00003326 00000-0 23354-4 0 8380 2 25544 051.6340 217.7446 0014355 316.0737 088.5614 15.77651351476298 CXO 1 25867U 99040B 07075.08333333 .00000396 00000-0 00000+0 0 465 2 25867 061.3262 091.3233 6106266 285.6683 354.9821 00.37805976 1903 ____________________________________________________________________ These 2-Line ...Continue Reading

Current TLEs

March 16th 2007 PDT

HST 1 20580U 90037B 07073.80772393 +.00000429 +00000-0 +20460-4 0 08462 2 20580 028.4663 085.5329 0003845 172.7418 187.3222 15.00205375725779 ISS (ZARYA) 1 25544U 98067A 07075.47894024 .01259103 00000-0 65392-2 0 8309 2 25544 051.8328 223.2260 0011155 137.3259 266.9206 15.77912724476136 CXO 1 25867U 99040B 07075.08333333 .00000396 00000-0 00000+0 0 465 2 25867 061.3262 091.3233 6106266 285.6683 354.9821 00.37805976 1903 ____________________________________________________________________ These 2-Line ...Continue Reading

Current TLEs

March 15th 2007 PDT

HST 1 20580U 90037B 07074.20688371 .00000445 00000-0 21747-4 0 8297 2 20580 028.4664 082.9307 0003830 177.1961 182.8649 15.00205722725839 ISS (ZARYA) 1 25544U 98067A 07074.46804565 .00021586 00000-0 11882-3 0 8248 2 25544 051.6322 228.2030 0020640 320.8161 093.9623 15.79362962475975 CXO 1 25867U 99040B 07075.08333333 .00000396 00000-0 00000+0 0 465 2 25867 061.3262 091.3233 6106266 285.6683 354.9821 00.37805976 1903 ____________________________________________________________________ These 2-Line ...Continue Reading

Current TLEs

March 14th 2007 PDT

HST 1 20580U 90037B 07072.87635058 .00000432 00000-0 20715-4 0 8281 2 20580 028.4661 091.6048 0003843 163.0874 196.9843 15.00204877725636 ISS (ZARYA) 1 25544U 98067A 07073.45474503 .00021567 00000-0 11895-3 0 8176 2 25544 051.6326 233.4491 0020762 316.9167 092.6959 15.79316462475810 CXO 1 25867U 99040B 07072.45833333 .00000369 00000-0 00000+0 0 457 2 25867 061.3118 091.3756 6101066 285.7060 357.6202 00.37804449 1891 ____________________________________________________________________ These 2-Line ...Continue Reading

Current TLEs

March 13th 2007 PDT

HST 1 20580U 90037B 07070.88054899 +.00000433 +00000-0 +20840-4 0 08390 2 20580 028.4658 104.6171 0003889 143.4968 216.5881 15.00203791725332 ISS (ZARYA) 1 25544U 98067A 07072.44092633 .00019276 00000-0 10701-3 0 8106 2 25544 051.6327 238.6960 0020661 312.6535 089.0255 15.79267155475654 CXO 1 25867U 99040B 07072.45833333 .00000369 00000-0 00000+0 0 457 2 25867 061.3118 091.3756 6101066 285.7060 357.6202 00.37804449 1891 ____________________________________________________________________ These 2-Line ...Continue Reading

Current TLEs

March 12th 2007 PDT

HST 1 20580U 90037B 07069.88264738 +.00000435 +00000-0 +20995-4 0 08475 2 20580 028.4657 111.1226 0003903 133.6022 226.4883 15.00203258725187 ISS (ZARYA) 1 25544U 98067A 07071.49014816 .00017262 00000-0 96466-4 0 8035 2 25544 051.6331 243.6150 0020479 308.3958 084.1605 15.79224042475501 CXO 1 25867U 99040B 07069.79166667 .00000347 00000-0 00000+0 0 444 2 25867 061.2975 091.4230 6096108 285.7624 354.5559 00.37805408 1881 ____________________________________________________________________ These 2-Line ...Continue Reading

Current TLEs

March 11th 2007 PDT

HST 1 20580U 90037B 07070.21528130 .00000441 00000-0 21440-4 0 8263 2 20580 028.4657 108.9542 0003895 137.1909 222.8982 15.00203484725232 ISS (ZARYA) 1 25544U 98067A 07070.48021473 .00017154 00000-0 96038-4 0 7966 2 25544 051.6333 248.8428 0020511 304.2868 102.7634 15.79187553475346 CXO 1 25867U 99040B 07069.79166667 .00000347 00000-0 00000+0 0 444 2 25867 061.2975 091.4230 6096108 285.7624 354.5559 00.37805408 1881 ____________________________________________________________________ These 2-Line ...Continue Reading

Current TLEs

March 10th 2007 PDT

HST 1 20580U 90037B 07068.88474513 .00000438 00000-0 21210-4 0 8258 2 20580 028.4655 117.6275 0003880 123.6711 236.4237 15.00202702725039 ISS (ZARYA) 1 25544U 98067A 07069.53130442 .00017790 00000-0 99587-4 0 7897 2 25544 051.6337 253.7549 0020532 300.7641 108.0659 15.79156039475196 CXO 1 25867U 99040B 07069.79166667 .00000347 00000-0 00000+0 0 444 2 25867 061.2975 091.4230 6096108 285.7624 354.5559 00.37805408 1881 ____________________________________________________________________ These 2-Line ...Continue Reading
  • This mailing list is a public mailing list - anyone may join or leave, at any time.
  • This mailing list is announce-only.

International Space Station (ISS) / Hubble Space Telescope (HST) / Chandra X-Ray Observatory Orbital Data via EMAIL

Privacy Policy:

Private list